Location: Greenwich
(51.4790°N, 0.0090°E)
Time: 04:54:02
(UTC+01:00)

A-11 Canister half - All Passes

Search period start: 22 April 2024 00:00
Search period end: 02 May 2024 00:00
Orbit: 1513 x 1686 km, 47.2° (Epoch: 21 April)

Date Brightness Start Highest point End Pass type
(mag) Time Alt. Az. Time Alt. Az. Time Alt. Az.
22 Apr - 09:31:27 10° SSE 09:36:53 17° SE 09:42:23 10° E daylight
22 Apr - 11:31:12 10° SW 11:39:48 45° SSE 11:48:39 10° E daylight
22 Apr - 13:34:38 10° WSW 13:43:53 68° S 13:53:28 10° E daylight
22 Apr - 15:39:04 10° W 15:48:19 61° SSW 15:57:55 10° ESE daylight
22 Apr - 17:43:56 10° W 17:52:04 32° SW 18:00:25 10° SSE daylight
23 Apr - 09:09:02 10° SSE 09:14:04 16° SE 09:19:08 10° E daylight
23 Apr - 11:08:23 10° SW 11:16:54 43° SSE 11:25:38 10° E daylight
23 Apr - 13:11:43 10° WSW 13:20:56 68° S 13:30:28 10° E daylight
23 Apr - 15:16:07 10° W 15:25:21 62° SSW 15:34:57 10° ESE daylight
23 Apr - 17:20:56 10° W 17:29:10 34° SW 17:37:38 10° SSE daylight
24 Apr - 08:46:40 10° SSE 08:51:14 15° SE 08:55:49 10° E daylight
24 Apr - 10:45:34 10° SSW 10:54:00 42° SSE 11:02:38 10° E daylight
24 Apr - 12:48:48 10° WSW 12:57:58 67° S 13:07:28 10° E daylight
24 Apr - 14:53:10 10° W 15:02:25 63° SSW 15:11:59 10° ESE daylight
24 Apr - 16:57:56 10° W 17:06:15 35° SW 17:14:49 10° SSE daylight
24 Apr - 19:07:02 10° WSW 19:08:52 11° WSW 19:10:43 10° SW daylight
25 Apr - 08:24:25 10° SSE 08:28:25 14° SE 08:32:25 10° E daylight
25 Apr - 10:22:45 10° SSW 10:31:06 40° SE 10:39:37 10° E daylight
25 Apr - 12:25:52 10° WSW 12:35:01 66° S 12:44:28 10° E daylight
25 Apr - 14:30:13 10° W 14:39:27 64° SSW 14:49:00 10° ESE daylight
25 Apr - 16:34:56 10° W 16:43:20 37° SW 16:52:01 10° SSE daylight
25 Apr - 18:43:03 10° WSW 18:46:02 12° WSW 18:49:03 10° SW daylight
26 Apr - 08:02:17 10° SE 08:05:36 12° SE 08:08:55 10° ESE daylight
26 Apr - 09:59:58 10° SSW 10:08:12 38° SE 10:16:36 10° E daylight
26 Apr - 12:02:56 10° WSW 12:12:04 65° SSE 12:21:28 10° E daylight
26 Apr - 14:07:16 10° W 14:16:30 65° SSW 14:26:03 10° ESE daylight
26 Apr - 16:11:57 10° W 16:20:26 38° SW 16:29:11 10° SSE daylight
26 Apr - 18:19:27 10° WSW 18:23:12 13° SW 18:26:59 10° SSW daylight
27 Apr - 07:40:23 10° SE 07:42:47 11° ESE 07:45:10 10° ESE daylight
27 Apr - 09:37:11 10° SSW 09:45:19 37° SE 09:53:35 10° E daylight
27 Apr - 11:40:01 10° WSW 11:49:07 64° SSE 11:58:29 10° E daylight
27 Apr - 13:44:19 10° W 13:53:32 66° S 14:03:04 10° ESE daylight
27 Apr - 15:48:58 10° W 15:57:31 40° SW 16:06:20 10° SSE daylight
27 Apr - 17:56:01 10° W 18:00:21 14° SW 18:04:46 10° SSW daylight
28 Apr - 07:19:33 10° SE 07:19:58 10° ESE 07:20:22 10° ESE daylight
28 Apr - 09:14:25 10° SSW 09:22:26 35° SE 09:30:33 10° E daylight
28 Apr - 11:17:06 10° WSW 11:26:11 63° SSE 11:35:29 10° E daylight
28 Apr - 13:21:22 10° W 13:30:34 67° S 13:40:05 10° ESE daylight
28 Apr - 15:26:00 10° W 15:34:36 42° SSW 15:43:29 10° SSE daylight
28 Apr - 17:32:40 10° W 17:37:30 15° SW 17:42:25 10° SSW daylight
29 Apr - 08:51:40 10° SSW 08:59:33 33° SE 09:07:32 10° E daylight
29 Apr - 10:54:11 10° WSW 11:03:14 62° SSE 11:12:30 10° E daylight
29 Apr - 12:58:26 10° W 13:07:37 67° S 13:17:06 10° ESE daylight
29 Apr - 15:03:02 10° W 15:11:41 43° SSW 15:20:37 10° SE daylight
29 Apr - 17:09:24 10° W 17:14:39 16° SW 17:20:00 10° SSW daylight
30 Apr - 08:28:55 10° SSW 08:36:40 32° SE 08:44:30 10° E daylight
30 Apr - 10:31:17 10° WSW 10:40:18 61° SSE 10:49:30 10° E daylight
30 Apr - 12:35:29 10° W 12:44:40 68° S 12:54:07 10° ESE daylight
30 Apr - 14:40:04 10° W 14:48:46 45° SSW 14:57:45 10° SE daylight
30 Apr - 16:46:10 10° W 16:51:48 17° SW 16:57:32 10° SSW daylight
01 May - 08:06:11 10° SSW 08:13:48 30° SE 08:21:28 10° E daylight
01 May - 10:08:23 10° WSW 10:17:21 59° SSE 10:26:31 10° E daylight
01 May - 12:12:32 10° W 12:21:42 68° S 12:31:09 10° ESE daylight
01 May - 14:17:05 10° W 14:25:51 46° SSW 14:34:52 10° SE daylight
01 May - 16:23:00 10° W 16:28:57 19° SW 16:35:00 10° S daylight
